Change the Weather History Date:

Wednesday, June 20, 2012

  Actual Average Record
Temperature  
Mean Temperature 80 °F -  
Max Temperature 96 °F 78 °F 96 °F (2012)
Min Temperature 64 °F 57 °F 41 °F (2005)
Cooling Degree Days 14    
Growing Degree Days 30 (Base 50)    
Moisture  
Dew Point 69 °F    
Average Humidity 69    
Maximum Humidity 93    
Minimum Humidity 46    
Precipitation  
Precipitation 0.00 in - - ()
Sea Level Pressure  
Sea Level Pressure 29.96 in    
Wind  
Wind Speed 6 mph (West)    
Max Wind Speed 12 mph    
Max Gust Speed 16 mph    
Visibility 10 miles    
Events      
Averages and records for this station are not official NWS values.
T = Trace of Precipitation, MM = Missing Value Source: NWS Daily Summary

Daily Weather History Graph

Daily Weather History Graph

Search for Another Location

Airport or City:

Trip Planner

Search our weather history database for the weather conditions in past years. The results will help you decide how hot, cold, wet, or windy it might be!

Date:

Astronomy

Jun. 20, 2012 Rise Set
Actual Time 5:07 AM EDT 8:25 PM EDT
Civil Twilight 4:32 AM EDT 9:00 PM EDT
Nautical Twilight 3:47 AM EDT 9:45 PM EDT
Astronomical Twilight 2:52 AM EDT 10:41 PM EDT
Moon 6:06 AM EDT (6/20) 9:07 PM EDT (6/20)
Length of Visible Light 16h 27m
Length of Day
15h 17m
New Moon, 1% of the Moon is Illuminated
Jun 20
New Moon
Jun 26
First Quarter
Jul 3
Full
Jul 10
Last Quarter
Jul 19
New

Hourly Weather History & Observations

Time (EDT) Temp. Heat Index Dew Point Humidity Pressure Visibility Wind Dir Wind Speed Gust Speed Precip Events Conditions
12:56 AM 64.9 °F - 61.0 °F 87% 30.04 in 10.0 mi Variable 5.8 mph - N/A   Clear
1:56 AM 64.9 °F - 61.0 °F 87% 30.04 in 10.0 mi SW 5.8 mph - N/A   Clear
2:56 AM 64.0 °F - 61.0 °F 90% 30.03 in 10.0 mi SW 4.6 mph - N/A   Clear
3:56 AM 64.9 °F - 62.1 °F 90% 30.02 in 10.0 mi Calm Calm - N/A   Clear
4:56 AM 64.9 °F - 63.0 °F 93% 30.01 in 10.0 mi SW 4.6 mph - N/A   Clear
5:56 AM 66.9 °F - 64.0 °F 90% 30.02 in 10.0 mi SSW 3.5 mph - N/A   Clear
6:56 AM 70.0 °F - 64.9 °F 84% 30.01 in 10.0 mi SW 5.8 mph - N/A   Clear
7:56 AM 75.0 °F - 66.9 °F 76% 30.01 in 10.0 mi West 6.9 mph - N/A   Clear
8:56 AM 80.1 °F 82.9 °F 69.1 °F 69% 30.01 in 10.0 mi West 8.1 mph - N/A   Clear
9:56 AM 84.9 °F 90.1 °F 71.1 °F 63% 30.00 in 10.0 mi WNW 8.1 mph - N/A   Partly Cloudy
10:56 AM 88.0 °F 93.8 °F 71.1 °F 57% 29.99 in 10.0 mi WSW 9.2 mph - N/A   Clear
11:56 AM 90.0 °F 96.4 °F 71.1 °F 54% 29.98 in 10.0 mi West 9.2 mph - N/A   Partly Cloudy
12:56 PM 90.0 °F 96.9 °F 72.0 °F 55% 29.96 in 10.0 mi West 8.1 mph - N/A   Mostly Cloudy
1:56 PM 93.0 °F 100.7 °F 72.0 °F 50% 29.94 in 10.0 mi NW 9.2 mph 16.1 mph N/A   Partly Cloudy
2:56 PM 93.9 °F 100.8 °F 71.1 °F 47% 29.92 in 10.0 mi West 5.8 mph - N/A   Partly Cloudy
3:56 PM 95.0 °F 102.5 °F 71.1 °F 46% 29.90 in 10.0 mi West 11.5 mph - N/A   Clear
4:56 PM 95.0 °F 102.5 °F 71.1 °F 46% 29.89 in 10.0 mi WNW 9.2 mph - N/A   Partly Cloudy
5:56 PM 93.9 °F 100.8 °F 71.1 °F 47% 29.88 in 10.0 mi WNW 6.9 mph - N/A   Clear
6:56 PM 91.9 °F 100.7 °F 73.0 °F 54% 29.88 in 10.0 mi WNW 5.8 mph - N/A   Clear
7:56 PM 88.0 °F 95.6 °F 73.0 °F 61% 29.88 in 8.0 mi West 3.5 mph - N/A   Mostly Cloudy
8:56 PM 82.9 °F 88.0 °F 72.0 °F 69% 29.88 in 10.0 mi West 3.5 mph - N/A   Clear
9:56 PM 79.0 °F - 73.0 °F 82% 29.88 in 10.0 mi WSW 5.8 mph - N/A   Clear
10:56 PM 79.0 °F - 73.0 °F 82% 29.90 in 10.0 mi Calm Calm - N/A   Mostly Cloudy
11:56 PM 78.8 °F - 71.6 °F 78% 29.86 in 10.0 mi WSW 5.8 mph - N/A   Clear